{"data":{"norad_id":59321,"intl_designator":"2024-057B","name":"STARLINK-31578","alt_names":[],"object_type":"PAYLOAD","status":"ACTIVE","operator":null,"country":"US","launch_date":"2024-03-25","launch_site_code":"AFETR","launch_vehicle":null,"mission":null,"orbit_class":"UNKNOWN","rcs_meters":null,"size_class":null,"mass_kg":null,"dimensions":null,"purposes":["comms"],"wikipedia_slug":null,"has_3d_model":false,"image_url":null,"decayed_at":null,"tle_current":{"epoch":"2026-05-25T04:31:12.010080Z","epoch_age_seconds":54647,"freshness":"FRESH","line1":"1 59321U 24057B   26145.18833345  .00001763  00000+0  73578-4 0  9991","line2":"2 59321  43.0028 114.6076 0001281 269.5729  90.4975 15.27580664121547","mean_motion":15.27580664,"eccentricity":0.0001281,"inclination_deg":43.0028,"raan_deg":114.6076,"arg_perigee_deg":269.5729,"mean_anomaly_deg":90.4975,"bstar":7.3578e-5,"rev_number":12154,"period_min":94.266707738322,"perigee_km":482.16819010129,"apogee_km":483.92602546971,"semimajor_km":6861.1841077855,"source":"CELESTRAK","updated_at":"2026-05-25T13:38:18.902614Z"}}}